Location: Newark
(48.0000°N, 67.0000°E)
Time: 15:04:53
(UTC+00:00)

Vanguard 2 - Pass Details

Date: 20 February 2020
Orbit: 552 x 2938 km, 32.9° (Epoch: 08 April)

Event Time Altitude Azimuth Distance (km) Brightness Sun altitude
Exits shadow 00:05:24 25° 222° (SW) 3,684 10.5 -25.0°
Maximum altitude 00:13:11 44° 170° (S) 3,293 10.6 -23.7°
Drops below altitude 10° 00:29:04 10° 107° (ESE) 5,768 12.9 -21.1°
Sets 00:33:54 0° 102° (ESE) 6,769 13.7 -20.3°
